Location: Dover
(48.8500°N, 53.9833°W)
Time: 15:48:14
(UTC+00:00)

Cosmos 2251 Rocket - Pass Details

Date: 14 November 2025
Orbit: 760 x 788 km, 74.0° (Epoch: 12 December)

Event Time Altitude Azimuth Distance (km) Brightness Sun altitude
Rises 23:07:19 0° 222° (SW) 3,233 7.2 -31.3°
Reaches altitude 10° 23:09:47 10° 229° (SW) 2,315 6.4 -31.7°
Maximum altitude 23:14:48 44° 301° (WNW) 1,078 4.5 -32.5°
Enters shadow 23:14:56 43° 305° (NW) 1,080 4.5 -32.5°
